www.pogodaiklimat.ru

АРХИВ ПОГОДЫ в Палм-Спрингсе

Время (UTC), дата Ветер
(напр.,м/с)
 
Видим.   Явления Облачность Т
(С)
Тd
(С)
f
(%)
Тe
(С)
Тes
(С)
Комфортность

P
(гПа)

Po
(гПа)
Тmin
(С)
Tmax
(С)
R
(мм)
SD
(см)
07:53 23.03 ЮВ  16 км    ясно  +15.6  +6.7  55  +16  +16    1018.4  1003.6         
08:53 23.03   16 км    ясно  +14.4  +7.2  62  +14  +14    1018.6  1003.6         
09:53 23.03   16 км    ясно  +15.0  +7.2  60  +15  +15    1018.3  1003.3         
10:53 23.03   16 км    ясно  +13.9  +7.2  64  +14  +14    1017.9  1002.9  +12.2  +18.9     
11:53 23.03   16 км    ясно  +13.3  +5.6  60  +13  +13    1018.0  1002.9         
12:53 23.03   16 км    ясно  +13.3  +6.7  64  +13  +13    1018.4  1003.6         
13:53 23.03 ЮЗ  16 км    ясно  +13.9  +6.1  59  +13  +13    1018.7  1003.6         
14:53 23.03   16 км    ясно  +17.2  +6.7  50  +17  +20    1018.7  1003.6         
15:53 23.03   16 км    ясно  +20.0  +6.1  40  +21  +27  комфорт  1018.6  1003.6         
16:53 23.03 СВ  16 км    ясно  +22.2  +4.4  31  +22  +30  комфорт  1018.3  1003.6  +12.2  +22.2     
17:53 23.03     16 км    ясно  +23.3  +5.6  32  +24  +41  комфорт  1017.8  1002.9         
18:07 23.03 СЗ  16 км    ясно  +23.3  +5.6  32  +24  +31  комфорт    1002.9         
18:53 23.03 СЗ  7
{9} 
16 км    ясно  +23.9  +6.1  32  +24  +27  комфорт  1017.3  1002.6         
19:53 23.03 СЗ  10
{13} 
16 км    ясно  +23.9  +6.1  32  +24  +24  комфорт  1016.3  1001.6         
20:53 23.03 СЗ  10
{13} 
16 км    ясно  +24.4  +2.8  24  +24  +24  комфорт  1015.9  1000.9         
21:53 23.03 СЗ  10
{13} 
16 км    ясно  +24.4  +2.8  24  +24  +24  комфорт  1015.3  1000.6         
22:53 23.03 СЗ  8
{14} 
16 км    ясно  +23.9  +3.3  26  +23  +24  комфорт  1015.3  1000.3  +22.2  +25.0     
23:53 23.03 СЗ  16 км    ясно  +23.9  +3.9  27  +23  +26  комфорт  1014.9  999.9         
00:53 24.03 С  16 км    ясно  +21.7  +3.9  31  +22  +22  комфорт  1015.2  1000.3         
01:53 24.03     16 км    ясно  +21.1  +3.9  32  +21  +21  комфорт  1015.8  1000.9         
02:53 24.03 СЗ  9
{15} 
16 км    ясно  +19.4  +4.4  37  +19  +19    1016.2  1001.3         
03:53 24.03 СЗ  5
{11} 
16 км    ясно  +19.4  +4.4  37  +19  +19    1016.3  1001.6         
04:53 24.03 ЮЗ  16 км    ясно  +16.7  +5.0  46  +17  +17    1016.7  1001.9  +16.7  +24.4     
05:53 24.03 нст  16 км    ясно  +17.8  +3.9  40  +18  +18    1016.6  1001.9         
06:53 24.03   16 км    ясно  +15.6  +5.6  51  +16  +16    1016.6  1001.9         
07:53 24.03 З  16 км    ясно  +17.2  +4.4  43  +17  +17    1016.6  1001.9         
08:53 24.03   16 км    ясно  +13.9  +5.0  55  +14  +14    1017.2  1002.3         
09:53 24.03   16 км    ясно  +12.8  +4.4  57  +13  +13    1017.2  1002.3         
10:53 24.03   16 км    ясно  +12.8  +4.4  57  +13  +13    1017.8  1002.9  +12.8  +18.3     
11:53 24.03   16 км    ясно  +11.7  +4.4  61  +11  +11    1018.6  1003.6         
12:53 24.03 З  16 км    ясно  +12.8  +2.8  51  +12  +12    1019.4  1004.3         
13:53 24.03 ЮЗ  16 км    ясно  +15.0  +1.7  41  +15  +15    1020.3  1005.3         
14:53 24.03 СЗ  16 км    ясно  +18.3  +2.2  34  +19  +20    1020.9  1006.0         
15:53 24.03 Ю  16 км    ясно  +20.0  +2.8  32  +21  +27  комфорт  1021.1  1006.3         
16:53 24.03   16 км    ясно  +22.8  +3.3  28  +23  +35  комфорт  1021.0  1006.3  +11.1  +22.8     
17:53 24.03 нст  16 км    ясно  +23.9  +1.1  22  +23  +37  комфорт  1020.9  1006.0         
18:53 24.03 нст  16 км    ясно  +26.1  +0.6  19  +24  +37  комфорт  1020.4  1005.6         
19:53 24.03 нст  16 км    ясно  +26.1  -0.6  17  +24  +41  комфорт  1019.6  1005.0         
20:53 24.03   16 км    ясно  +26.7  -2.2  15  +24  +44  комфорт  1018.8  1003.9         
21:53 24.03 нст  16 км    ясно  +27.2  -1.7  15  +25  +35  комфорт  1018.5  1003.6         
22:53 24.03 нст  16 км    ясно  +27.2  -1.1  16  +25  +33  комфорт  1018.1  1003.3  +22.8  +28.3     
23:53 24.03 нст  16 км    ясно  +27.2  -1.1  16  +25  +28  комфорт  1018.1  1003.3         
00:53 25.03 ЮЗ  16 км    ясно  +24.4  +1.1  22  +23  +24  комфорт  1018.4  1003.6         
01:53 25.03 нст  16 км    ясно  +23.9  +2.2  24  +23  +23  комфорт  1019.1  1004.3         
02:53 25.03 СВ  16 км    ясно  +21.7  +2.8  29  +22  +22  комфорт  1020.4  1005.6         
03:53 25.03 ЮЗ  16 км    ясно  +20.0  +3.3  33  +21  +21  комфорт  1020.8  1006.0         
04:53 25.03 СЗ  16 км    ясно  +18.3  +7.8  50  +18  +18    1020.8  1006.0  +18.3  +27.8     
05:53 25.03 СЗ  16 км    ясно  +18.9  +6.7  45  +20  +20    1020.7  1006.0         

 

Местоположение метеостанции Palm Springs Regional Airport: широта 33.8222 долгота -116.5043 высота над уровнем моря 124 м.

В архиве по умолчанию представлена погода в Палм-Спрингсе за последние 1-2 суток. Обновление информации о фактической погоде в базе происходит ежечасно! Архивные данные за месяц целиком и за предыдущие месяцы Вы можете получить, выбрав интересующий диапазон дат из раскрывающегося списка и нажав кнопку "Ввод!".

Внимание! Архив погоды МЕТАР в базе сайта в настоящее время начинается c 1 января 2011 г. Нет смысла пытаться выбрать более раннюю дату.

Внимание! Время в таблицах - всемирное. Для получения местного времени необходимо прибавить поправку, которая в Палм-Спрингсе равна -8 ч.

Ветер - указаны скорость ветра в м/с и направление, откуда дует ветер: С - северный, СВ - северо-восточный, В - восточный, ЮВ - юго-восточный, Ю - южный, ЮЗ - юго-западный, З - западный, СЗ - северо-западный.
Видимость - горизонтальная дальность видимости в метрах или километрах. При видимости от 1 до 10 км при отсутствии осадков обычно наблюдается дымка, при ухудшении видимости до 1 км и менее - туман. В сухую погоду видимость может ухудшаться дымом, пылью или мглою.
Атмосферные явления - указаны явления, наблюдавшиеся в указанный момент времени.
Облачность - указаны через наклонную черту верхняя и нижняя облачность в баллах и высота нижней границы облаков в метрах. Внимание: облачность, как и прочие метеорологические величины в США измеряются автоматическими метеостанциями. Указанные значения в баллах носят условный характер и показывают процент времени, в течение которого, в среднем, лазерный луч высотомера отражался от облаков обратно.
T - Температура воздуха - температура, измеренная на высоте 2 м над землей.
Td - Температура точки росы - температура, при понижении до которой содержащийся в воздухе водяной пар достигнет насыщения.
f - Относительная влажность воздуха - влажноcть воздуха, измеренная на высоте 2 м над землей.
Te - Эффективная температура - температура, которую ощущает одетый по сезону человек в тени. Характеристика душности погоды. При расчете учитывается влияние влажности воздуха и скорости ветра на теплоощущения человека.
Tes - Эффективная температура на солнце - температура, которую ощущает человек, с поправкой на солнечный нагрев. Характеристика знойности погоды. Зависит от высоты солнца над горизонтом, облачности и скорости ветра. Ночью, в пасмурную погоду, а также при ветре 12 м/с и более поправка равна нулю.
P - Атмосферное давление - приведенное к уровню моря атмосферное давление.
Po - Атмосферное давление - измеренное на уровне метеостанции атмосферное давление.
Tmin - Минимальная температура - минимум температуры воздуха на высоте 2 м над землей.
Tmax - Максимальная температура - максимум температуры воздуха на высоте 2 м над землей.
R - Количество осадков - Количество выпавших осадков за 3 или 6 часов, мм.
SD - Снежный покров - Высота снежного покрова, см.